{"data":{"norad_id":59786,"intl_designator":"2024-093E","name":"STARLINK-31862","alt_names":[],"object_type":"PAYLOAD","status":"ACTIVE","operator":null,"country":"US","launch_date":"2024-05-18","launch_site_code":"AFETR","launch_vehicle":null,"mission":null,"orbit_class":"UNKNOWN","rcs_meters":null,"size_class":null,"mass_kg":null,"dimensions":null,"purposes":["comms"],"wikipedia_slug":null,"has_3d_model":false,"image_url":null,"decayed_at":null,"tle_current":{"epoch":"2026-09-21T11:38:34.492416Z","epoch_age_seconds":89351,"freshness":"FRESH","line1":"1 59786U 24093E   26264.48512144 -.00000212  00000+0  18076-5 0  9994","line2":"2 59786  43.0007 182.8184 0001101 267.6505  92.4221 15.27575495132643","mean_motion":15.27575495,"eccentricity":0.0001101,"inclination_deg":43.0007,"raan_deg":182.8184,"arg_perigee_deg":267.6505,"mean_anomaly_deg":92.4221,"bstar":1.8076e-6,"rev_number":13264,"period_min":94.267026717393,"perigee_km":482.30716758909,"apogee_km":483.81800373785,"semimajor_km":6861.1995856635,"source":"CELESTRAK","updated_at":"2026-09-22T09:00:49.072131Z"}}}